• In Uzbekistan
  • List of Countries
  • For 7 days
  • Water Temperature
  • Weather Map
  • Weather Widgets
  • user-avatar
    Login

    Hourly Weather Smolan

    Today, 29 May, Friday

    Time Temperature Precipitation Wind Pressure Humidity
    00:00 +5°C° 0 mm 1 mps 653 mmHg 90%
    01:00 +4°C° 0 mm 1 mps 653 mmHg 90%
    02:00 +4°C° 0 mm 1 mps 653 mmHg 90%
    03:00 +4°C° 0 mm 1 mps 653 mmHg 90%
    04:00 +3°C° 0 mm 1 mps 652 mmHg 89%
    05:00 +3°C° 0 mm 1 mps 652 mmHg 89%
    06:00 +5°C° 0 mm 1 mps 653 mmHg 83%
    07:00 +8°C° 0 mm 1 mps 654 mmHg 77%
    08:00 +10°C° 0 mm 1 mps 655 mmHg 71%
    09:00 +11°C° 0.4 mm 1 mps 655 mmHg 70%
    10:00 +12°C° 0.4 mm 1 mps 655 mmHg 68%
    11:00 +12°C° 0.4 mm 2 mps 655 mmHg 66%
    12:00 +13°C° 1.2 mm 2 mps 655 mmHg 68%
    13:00 +13°C° 1.2 mm 1 mps 655 mmHg 70%
    14:00 +13°C° 1.2 mm 1 mps 655 mmHg 73%
    15:00 +13°C° 1.3 mm 1 mps 654 mmHg 75%
    16:00 +12°C° 1.3 mm 1 mps 654 mmHg 77%
    17:00 +12°C° 1.3 mm 1 mps 654 mmHg 79%
    18:00 +10°C° 0.5 mm 1 mps 653 mmHg 83%
    19:00 +9°C° 0.5 mm 1 mps 653 mmHg 87%
    20:00 +6°C° 0.5 mm 0 mps 652 mmHg 91%
    21:00 +6°C° 0.1 mm 1 mps 652 mmHg 90%
    22:00 +6°C° 0.1 mm 1 mps 652 mmHg 90%
    23:00 +6°C° 0.1 mm 1 mps 652 mmHg 90%

    Tomorrow, 30 May, Saturday

    Time Temperature Precipitation Wind Pressure Humidity
    00:00 +5°C° 0 mm 1 mps 652 mmHg 89%
    01:00 +5°C° 0 mm 1 mps 652 mmHg 88%
    02:00 +5°C° 0 mm 1 mps 652 mmHg 87%
    03:00 +5°C° 0 mm 1 mps 652 mmHg 87%
    04:00 +4°C° 0 mm 1 mps 652 mmHg 87%
    05:00 +4°C° 0 mm 1 mps 652 mmHg 87%
    06:00 +7°C° 0 mm 1 mps 653 mmHg 81%
    07:00 +8°C° 0 mm 0 mps 654 mmHg 76%
    08:00 +11°C° 0 mm 0 mps 655 mmHg 70%
    09:00 +13°C° 0.1 mm 1 mps 655 mmHg 65%
    10:00 +14°C° 0.1 mm 1 mps 655 mmHg 60%
    11:00 +16°C° 0.1 mm 2 mps 656 mmHg 55%
    12:00 +15°C° 1.2 mm 2 mps 655 mmHg 62%
    13:00 +14°C° 1.2 mm 2 mps 655 mmHg 70%
    14:00 +14°C° 1.2 mm 2 mps 654 mmHg 77%
    15:00 +13°C° 1.3 mm 2 mps 654 mmHg 78%
    16:00 +13°C° 1.3 mm 2 mps 654 mmHg 79%
    17:00 +13°C° 1.3 mm 2 mps 654 mmHg 80%
    18:00 +12°C° 0.6 mm 1 mps 653 mmHg 84%
    19:00 +10°C° 0.6 mm 1 mps 653 mmHg 87%
    20:00 +9°C° 0.6 mm 1 mps 652 mmHg 91%
    21:00 +8°C° 0.1 mm 1 mps 652 mmHg 91%
    22:00 +8°C° 0.1 mm 1 mps 652 mmHg 91%
    23:00 +8°C° 0.1 mm 1 mps 652 mmHg 91%

    Day after tomorrow, 31 May, Sunday

    Time Temperature Precipitation Wind Pressure Humidity
    00:00 +7°C° 0 mm 1 mps 652 mmHg 91%
    01:00 +7°C° 0 mm 1 mps 652 mmHg 91%
    02:00 +7°C° 0 mm 1 mps 652 mmHg 91%
    03:00 +7°C° 0 mm 1 mps 652 mmHg 90%
    04:00 +7°C° 0 mm 1 mps 652 mmHg 90%
    05:00 +7°C° 0 mm 1 mps 652 mmHg 89%
    06:00 +9°C° 0.2 mm 1 mps 653 mmHg 87%
    07:00 +10°C° 0.2 mm 1 mps 653 mmHg 85%
    08:00 +11°C° 0.2 mm 1 mps 653 mmHg 83%
    09:00 +11°C° 0.7 mm 1 mps 653 mmHg 83%
    10:00 +12°C° 0.7 mm 1 mps 654 mmHg 83%
    11:00 +12°C° 0.7 mm 2 mps 654 mmHg 84%
    12:00 +12°C° 1.1 mm 2 mps 653 mmHg 84%
    13:00 +13°C° 1.1 mm 2 mps 653 mmHg 84%
    14:00 +13°C° 1.1 mm 2 mps 653 mmHg 84%
    15:00 +12°C° 1.1 mm 2 mps 652 mmHg 84%
    16:00 +12°C° 1.1 mm 2 mps 652 mmHg 85%
    17:00 +12°C° 1.1 mm 1 mps 652 mmHg 85%
    18:00 +11°C° 0.9 mm 1 mps 651 mmHg 88%
    19:00 +10°C° 0.9 mm 1 mps 651 mmHg 90%
    20:00 +7°C° 0.9 mm 0 mps 651 mmHg 93%
    21:00 +7°C° 0.4 mm 0 mps 651 mmHg 93%
    22:00 +7°C° 0.4 mm 0 mps 651 mmHg 93%
    23:00 +8°C° 0.4 mm 1 mps 651 mmHg 93%

    1 June, Monday

    Time Temperature Precipitation Wind Pressure Humidity
    00:00 +7°C° 0.3 mm 0 mps 651 mmHg 93%
    01:00 +7°C° 0.3 mm 0 mps 651 mmHg 93%
    02:00 +7°C° 0.3 mm 0 mps 651 mmHg 93%
    03:00 +8°C° 1 mm 1 mps 651 mmHg 94%
    04:00 +7°C° 1 mm 1 mps 650 mmHg 95%
    05:00 +7°C° 1 mm 1 mps 650 mmHg 96%
    06:00 +8°C° 0.6 mm 1 mps 650 mmHg 95%
    07:00 +8°C° 0.6 mm 1 mps 651 mmHg 94%
    08:00 +9°C° 0.6 mm 1 mps 651 mmHg 93%
    09:00 +9°C° 0.7 mm 1 mps 651 mmHg 92%
    10:00 +10°C° 0.7 mm 1 mps 651 mmHg 90%
    11:00 +10°C° 0.7 mm 1 mps 651 mmHg 89%
    12:00 +10°C° 1 mm 1 mps 651 mmHg 90%
    13:00 +10°C° 1 mm 1 mps 651 mmHg 90%
    14:00 +9°C° 1 mm 1 mps 651 mmHg 91%
    15:00 +9°C° 1 mm 1 mps 651 mmHg 91%
    16:00 +10°C° 1 mm 1 mps 651 mmHg 90%
    17:00 +10°C° 1 mm 1 mps 651 mmHg 89%
    18:00 +9°C° 0.3 mm 1 mps 650 mmHg 91%
    19:00 +8°C° 0.3 mm 1 mps 650 mmHg 93%
    20:00 +7°C° 0.3 mm 1 mps 650 mmHg 94%
    21:00 +7°C° 0.2 mm 1 mps 650 mmHg 95%
    22:00 +7°C° 0.2 mm 1 mps 650 mmHg 95%
    23:00 +7°C° 0.2 mm 1 mps 651 mmHg 95%

    2 June, Tuesday

    Time Temperature Precipitation Wind Pressure Humidity
    00:00 +7°C° 0.4 mm 1 mps 651 mmHg 95%
    01:00 +7°C° 0.4 mm 1 mps 650 mmHg 95%
    02:00 +7°C° 0.4 mm 1 mps 650 mmHg 95%
    03:00 +7°C° 0.6 mm 1 mps 650 mmHg 95%
    04:00 +7°C° 0.6 mm 1 mps 650 mmHg 95%
    05:00 +7°C° 0.6 mm 1 mps 650 mmHg 95%
    06:00 +7°C° 0.3 mm 1 mps 650 mmHg 93%
    07:00 +8°C° 0.3 mm 1 mps 651 mmHg 91%
    08:00 +8°C° 0.3 mm 1 mps 651 mmHg 89%
    09:00 +9°C° 0.3 mm 1 mps 651 mmHg 87%
    10:00 +10°C° 0.3 mm 1 mps 652 mmHg 85%
    11:00 +11°C° 0.3 mm 1 mps 652 mmHg 83%
    12:00 +10°C° 0.9 mm 2 mps 652 mmHg 83%
    13:00 +10°C° 0.9 mm 2 mps 652 mmHg 84%
    14:00 +10°C° 0.9 mm 2 mps 652 mmHg 84%
    15:00 +10°C° 0.7 mm 2 mps 651 mmHg 83%
    16:00 +10°C° 0.7 mm 2 mps 651 mmHg 83%
    17:00 +10°C° 0.7 mm 2 mps 651 mmHg 82%
    18:00 +8°C° 0.2 mm 2 mps 651 mmHg 86%
    19:00 +8°C° 0.2 mm 1 mps 650 mmHg 90%
    20:00 +7°C° 0.2 mm 1 mps 650 mmHg 94%
    21:00 +7°C° 0 mm 1 mps 650 mmHg 94%
    22:00 +6°C° 0 mm 1 mps 650 mmHg 94%
    23:00 +6°C° 0 mm 1 mps 651 mmHg 94%

    3 June, Wednesday

    Time Temperature Precipitation Wind Pressure Humidity
    00:00 +6°C° 0.1 mm 1 mps 650 mmHg 94%
    01:00 +6°C° 0.1 mm 1 mps 650 mmHg 94%
    02:00 +6°C° 0.1 mm 1 mps 650 mmHg 94%
    03:00 +6°C° 0 mm 1 mps 650 mmHg 94%
    04:00 +6°C° 0 mm 1 mps 650 mmHg 94%
    05:00 +6°C° 0 mm 1 mps 650 mmHg 94%
    06:00 +7°C° 0 mm 1 mps 651 mmHg 91%
    07:00 +9°C° 0 mm 1 mps 651 mmHg 87%
    08:00 +10°C° 0 mm 1 mps 652 mmHg 83%
    09:00 +11°C° 0.3 mm 1 mps 652 mmHg 82%
    10:00 +11°C° 0.3 mm 1 mps 652 mmHg 81%
    11:00 +12°C° 0.3 mm 2 mps 653 mmHg 81%
    12:00 +12°C° 1 mm 2 mps 652 mmHg 83%
    13:00 +12°C° 1 mm 1 mps 652 mmHg 84%
    14:00 +12°C° 1 mm 1 mps 652 mmHg 86%
    15:00 +12°C° 1 mm 1 mps 652 mmHg 87%
    16:00 +12°C° 1 mm 1 mps 652 mmHg 88%
    17:00 +12°C° 1 mm 1 mps 651 mmHg 88%
    18:00 +11°C° 0.7 mm 1 mps 651 mmHg 91%
    19:00 +10°C° 0.7 mm 1 mps 651 mmHg 93%
    20:00 +9°C° 0.7 mm 1 mps 651 mmHg 96%
    21:00 +9°C° 0.9 mm 1 mps 651 mmHg 96%
    22:00 +9°C° 0.9 mm 1 mps 652 mmHg 97%
    23:00 +8°C° 0.9 mm 1 mps 652 mmHg 97%
    Show more